📊 Raw Sensor Data

Showing records 45951 to 45975 of 85,062 total

ID Distance (ft) Battery V Battery A Int Temp (°F) Int Humid (%) Ext Temp (°F) Solar V RSSI SNR Time Stamp
39124 15.3 4.08 0 81 48 74 4.50 -72 8 04/28/2025 07:00 PM
39123 15.3 4.05 7 84 47 77 4.50 -72 7 04/28/2025 06:45 PM
39122 15.4 4.03 0 85 46 77 5.10 -72 8 04/28/2025 06:30 PM
39121 15.3 4.03 0 86 45 77 5.10 -73 9 04/28/2025 06:15 PM
39120 15.3 4.03 0 87 45 77 5.10 -74 8 04/28/2025 06:00 PM
39119 15.3 4.03 0 87 44 77 5.10 -74 8 04/28/2025 05:45 PM
39118 15.3 4.02 0 88 43 77 5.10 -74 8 04/28/2025 05:30 PM
39117 15.3 4.03 0 87 43 78 5.10 -73 7 04/28/2025 05:15 PM
39116 15.3 4.03 0 87 43 78 5.10 -75 8 04/28/2025 05:00 PM
39115 15.2 4.03 0 87 41 77 5.10 -76 8 04/28/2025 04:30 PM
39114 15.3 4.03 0 86 41 78 5.10 -76 8 04/28/2025 04:15 PM
39113 15.2 4.03 0 86 41 76 5.10 -74 8 04/28/2025 04:00 PM
39112 15.3 4.02 0 85 40 76 5.10 -76 8 04/28/2025 03:45 PM
39111 15.2 4.03 0 85 40 75 5.10 -74 7 04/28/2025 03:30 PM
39110 15.3 4.02 0 84 40 76 5.10 -75 8 04/28/2025 03:15 PM
39109 15.3 4.02 0 84 39 74 5.10 -76 8 04/28/2025 03:00 PM
39108 15.3 4.02 0 82 39 74 5.10 -77 7 04/28/2025 02:45 PM
39107 15.3 4.02 0 82 39 75 5.10 -76 7 04/28/2025 02:30 PM
39106 15.3 4.12 0 82 38 72 5.10 -74 7 04/28/2025 02:15 PM
39105 15.2 4.02 0 80 39 71 5.10 -74 8 04/28/2025 02:00 PM
39104 15.3 4.02 0 78 39 71 5.10 -76 7 04/28/2025 01:45 PM
39103 15.2 4.02 0 77 39 71 5.10 -75 8 04/28/2025 01:30 PM
39102 15.3 4.02 0 75 40 69 5.10 -76 7 04/28/2025 01:15 PM
39101 15.2 4.02 0 74 40 68 5.10 -76 8 04/28/2025 01:00 PM
39100 15.3 4.02 0 73 40 68 5.10 -74 7 04/28/2025 12:45 PM